Time,TemperatureF,DewpointF,PressureIn,WindDirection,WindDirectionDegrees,WindSpeedMPH,WindSpeedGustMPH,Humidity,HourlyPrecipIn,Conditions,Clouds,dailyrainin,SoftwareType,DateUTC
2013-05-21 00:00:00,50.9,48.3,30.06,North,0,0.0,0.0,91,0.00,,,0.00,WUHU216HW,2013-05-21 07:00:00,
2013-05-21 00:05:00,50.8,48.2,30.06,North,0,0.0,0.0,91,0.00,,,0.00,WUHU216HW,2013-05-21 07:05:00,
2013-05-21 00:10:00,50.8,48.2,30.07,North,0,0.0,0.0,91,0.00,,,0.00,WUHU216HW,2013-05-21 07:10:00,
2013-05-21 00:15:00,50.8,48.2,30.06,North,0,0.0,0.0,91,0.00,,,0.00,WUHU216HW,2013-05-21 07:15:00,
2013-05-21 00:20:00,50.8,48.2,30.06,North,0,0.0,0.0,91,0.00,,,0.00,WUHU216HW,2013-05-21 07:20:00,
2013-05-21 00:25:00,50.8,48.2,30.06,North,0,0.0,0.0,91,0.00,,,0.00,WUHU216HW,2013-05-21 07:25:00,
2013-05-21 00:30:00,50.8,48.2,30.06,North,0,0.0,0.0,91,0.00,,,0.00,WUHU216HW,2013-05-21 07:30:00,
2013-05-21 00:35:00,50.8,48.2,30.06,North,0,0.0,0.0,91,0.00,,,0.00,WUHU216HW,2013-05-21 07:35:00,
2013-05-21 00:40:00,50.6,48.0,30.06,North,0,0.0,0.0,91,0.00,,,0.00,WUHU216HW,2013-05-21 07:40:00,
2013-05-21 00:45:00,50.6,48.0,30.06,North,0,0.0,0.0,91,0.00,,,0.00,WUHU216HW,2013-05-21 07:45:00,
2013-05-21 00:50:00,50.4,47.8,30.05,North,0,0.0,0.0,91,0.00,,,0.00,WUHU216HW,2013-05-21 07:50:00,
2013-05-21 00:55:00,50.4,47.5,30.05,North,0,0.0,0.0,90,0.00,,,0.00,WUHU216HW,2013-05-21 07:55:00,
2013-05-21 01:00:00,50.2,47.3,30.05,North,0,0.0,0.0,90,0.00,,,0.00,WUHU216HW,2013-05-21 08:00:00,
2013-05-21 01:05:00,50.0,47.2,30.05,North,0,0.0,0.0,90,0.00,,,0.00,WUHU216HW,2013-05-21 08:05:00,
2013-05-21 01:10:00,50.0,47.2,30.05,North,0,0.0,0.0,90,0.00,,,0.00,WUHU216HW,2013-05-21 08:10:00,
2013-05-21 01:15:00,50.0,47.2,30.05,North,0,0.0,0.0,90,0.00,,,0.00,WUHU216HW,2013-05-21 08:15:00,
2013-05-21 01:20:00,50.2,47.3,30.05,North,0,0.0,0.0,90,0.00,,,0.00,WUHU216HW,2013-05-21 08:20:00,
2013-05-21 01:25:00,50.2,47.6,30.05,North,0,0.0,0.0,91,0.00,,,0.00,WUHU216HW,2013-05-21 08:25:00,
2013-05-21 01:30:00,50.4,47.8,30.05,North,0,0.0,0.0,91,0.00,,,0.00,WUHU216HW,2013-05-21 08:30:00,
2013-05-21 01:35:00,50.2,47.6,30.05,North,0,0.0,0.0,91,0.00,,,0.00,WUHU216HW,2013-05-21 08:35:00,
2013-05-21 01:40:00,50.4,47.8,30.05,North,0,0.0,0.0,91,0.00,,,0.00,WUHU216HW,2013-05-21 08:40:00,
2013-05-21 01:45:00,50.4,47.8,30.05,North,0,0.0,0.0,91,0.00,,,0.00,WUHU216HW,2013-05-21 08:45:00,
2013-05-21 01:50:00,50.8,48.4,30.04,North,0,0.0,0.0,92,0.00,,,0.00,WUHU216HW,2013-05-21 08:50:00,
2013-05-21 01:55:00,50.8,48.4,30.04,North,0,0.0,0.0,92,0.00,,,0.00,WUHU216HW,2013-05-21 08:55:00,
2013-05-21 02:00:00,50.8,48.4,30.04,North,0,0.0,0.0,92,0.00,,,0.00,WUHU216HW,2013-05-21 09:00:00,
2013-05-21 02:05:00,50.8,48.4,30.04,North,0,0.0,0.0,92,0.00,,,0.00,WUHU216HW,2013-05-21 09:05:00,
2013-05-21 02:10:00,50.8,48.4,30.04,North,0,0.0,0.0,92,0.00,,,0.00,WUHU216HW,2013-05-21 09:10:00,
2013-05-21 02:15:00,50.9,48.6,30.04,North,0,0.0,0.0,92,0.00,,,0.00,WUHU216HW,2013-05-21 09:15:00,
2013-05-21 02:20:00,50.9,48.6,30.04,North,0,0.0,0.0,92,0.00,,,0.00,WUHU216HW,2013-05-21 09:20:00,
2013-05-21 02:25:00,50.9,48.6,30.04,North,0,0.0,0.0,92,0.00,,,0.00,WUHU216HW,2013-05-21 09:25:00,
2013-05-21 02:30:00,50.8,48.4,30.03,North,0,0.0,0.0,92,0.00,,,0.00,WUHU216HW,2013-05-21 09:30:00,
2013-05-21 02:35:00,50.8,48.4,30.04,North,0,0.0,0.0,92,0.00,,,0.00,WUHU216HW,2013-05-21 09:35:00,
2013-05-21 02:40:00,50.6,48.2,30.04,North,0,0.0,0.0,92,0.00,,,0.00,WUHU216HW,2013-05-21 09:40:00,
2013-05-21 02:45:00,50.6,48.2,30.04,North,0,0.0,0.0,92,0.00,,,0.00,WUHU216HW,2013-05-21 09:45:00,
2013-05-21 02:50:00,50.4,48.1,30.04,North,0,0.0,0.0,92,0.00,,,0.00,WUHU216HW,2013-05-21 09:50:00,
2013-05-21 02:55:00,50.4,48.1,30.04,North,0,0.0,0.0,92,0.00,,,0.00,WUHU216HW,2013-05-21 09:55:00,
2013-05-21 03:00:00,50.6,48.2,30.04,North,0,0.0,0.0,92,0.00,,,0.00,WUHU216HW,2013-05-21 10:00:00,
2013-05-21 03:05:00,50.6,48.2,30.04,North,0,0.0,0.0,92,0.00,,,0.00,WUHU216HW,2013-05-21 10:05:00,
2013-05-21 03:10:00,50.8,48.4,30.04,North,0,0.0,0.0,92,0.00,,,0.00,WUHU216HW,2013-05-21 10:10:00,
2013-05-21 03:15:00,50.8,48.2,30.04,North,0,0.0,0.0,91,0.00,,,0.00,WUHU216HW,2013-05-21 10:15:00,
2013-05-21 03:20:00,50.8,48.2,30.04,North,0,0.0,0.0,91,0.00,,,0.00,WUHU216HW,2013-05-21 10:20:00,
2013-05-21 03:25:00,50.9,48.3,30.04,North,0,0.0,0.0,91,0.00,,,0.00,WUHU216HW,2013-05-21 10:25:00,
2013-05-21 03:30:00,51.1,48.5,30.04,North,0,0.0,0.0,91,0.00,,,0.00,WUHU216HW,2013-05-21 10:30:00,
2013-05-21 03:35:00,51.1,48.8,30.03,North,0,0.0,0.0,92,0.00,,,0.00,WUHU216HW,2013-05-21 10:35:00,
2013-05-21 03:40:00,51.1,48.8,30.04,North,0,0.0,0.0,92,0.00,,,0.00,WUHU216HW,2013-05-21 10:40:00,
2013-05-21 03:45:00,51.1,48.8,30.04,North,0,0.0,0.0,92,0.00,,,0.00,WUHU216HW,2013-05-21 10:45:00,
2013-05-21 03:50:00,51.1,49.2,30.04,North,0,0.0,0.0,93,0.00,,,0.00,WUHU216HW,2013-05-21 10:50:00,
2013-05-21 03:55:00,51.1,49.2,30.04,North,0,0.0,0.0,93,0.00,,,0.00,WUHU216HW,2013-05-21 10:55:00,
2013-05-21 04:00:00,51.1,48.8,30.04,North,0,0.0,0.0,92,0.00,,,0.00,WUHU216HW,2013-05-21 11:00:00,
2013-05-21 04:05:00,51.1,49.2,30.04,North,0,0.0,0.0,93,0.00,,,0.00,WUHU216HW,2013-05-21 11:05:00,
2013-05-21 04:10:00,51.1,49.2,30.05,North,0,0.0,0.0,93,0.00,,,0.00,WUHU216HW,2013-05-21 11:10:00,
2013-05-21 04:15:00,51.1,49.2,30.04,North,0,0.0,0.0,93,0.00,,,0.00,WUHU216HW,2013-05-21 11:15:00,
2013-05-21 04:20:00,51.1,49.4,30.05,North,0,0.0,0.0,94,0.00,,,0.00,WUHU216HW,2013-05-21 11:20:00,
2013-05-21 04:25:00,51.1,49.2,30.04,North,0,0.0,0.0,93,0.00,,,0.00,WUHU216HW,2013-05-21 11:25:00,
2013-05-21 04:30:00,51.1,49.4,30.05,North,0,0.0,0.0,94,0.00,,,0.00,WUHU216HW,2013-05-21 11:30:00,
2013-05-21 04:35:00,51.1,49.2,30.05,North,0,0.0,0.0,93,0.00,,,0.00,WUHU216HW,2013-05-21 11:35:00,
2013-05-21 04:40:00,51.1,49.2,30.05,North,0,0.0,0.0,93,0.00,,,0.00,WUHU216HW,2013-05-21 11:40:00,
2013-05-21 04:45:00,51.1,49.2,30.05,North,0,0.0,0.0,93,0.00,,,0.00,WUHU216HW,2013-05-21 11:45:00,
2013-05-21 04:50:00,51.1,49.2,30.05,North,0,0.0,0.0,93,0.00,,,0.00,WUHU216HW,2013-05-21 11:50:00,
2013-05-21 04:55:00,51.1,49.2,30.05,North,0,0.0,0.0,93,0.00,,,0.00,WUHU216HW,2013-05-21 11:55:00,
2013-05-21 05:00:00,51.1,49.2,30.05,North,0,0.0,0.0,93,0.00,,,0.00,WUHU216HW,2013-05-21 12:00:00,
2013-05-21 05:05:00,51.1,49.2,30.05,North,0,0.0,0.0,93,0.00,,,0.00,WUHU216HW,2013-05-21 12:05:00,
2013-05-21 05:10:00,50.9,49.0,30.05,North,0,0.0,0.0,93,0.00,,,0.00,WUHU216HW,2013-05-21 12:10:00,
2013-05-21 05:15:00,50.9,49.0,30.06,North,0,0.0,0.0,93,0.00,,,0.00,WUHU216HW,2013-05-21 12:15:00,
2013-05-21 05:20:00,50.8,48.8,30.06,North,0,0.0,0.0,93,0.00,,,0.00,WUHU216HW,2013-05-21 12:20:00,
2013-05-21 05:25:00,50.8,48.4,30.06,North,0,0.0,0.0,92,0.00,,,0.00,WUHU216HW,2013-05-21 12:25:00,
2013-05-21 05:30:00,50.8,48.4,30.06,North,0,0.0,0.0,92,0.00,,,0.00,WUHU216HW,2013-05-21 12:30:00,
2013-05-21 05:35:00,50.8,48.4,30.06,North,0,0.0,0.0,92,0.00,,,0.00,WUHU216HW,2013-05-21 12:35:00,
2013-05-21 05:40:00,50.8,48.4,30.07,North,0,0.0,0.0,92,0.00,,,0.00,WUHU216HW,2013-05-21 12:40:00,
2013-05-21 05:45:00,50.8,48.4,30.07,North,0,0.0,0.0,92,0.00,,,0.00,WUHU216HW,2013-05-21 12:45:00,
2013-05-21 05:50:00,50.8,48.4,30.07,North,0,0.0,0.0,92,0.00,,,0.00,WUHU216HW,2013-05-21 12:50:00,
2013-05-21 05:55:00,50.9,48.6,30.07,North,0,0.0,0.0,92,0.00,,,0.00,WUHU216HW,2013-05-21 12:55:00,
2013-05-21 06:00:00,50.9,48.3,30.08,North,0,0.0,0.0,91,0.00,,,0.00,WUHU216HW,2013-05-21 13:00:00,
2013-05-21 06:05:00,50.9,48.3,30.08,North,0,0.0,0.0,91,0.00,,,0.00,WUHU216HW,2013-05-21 13:05:00,
2013-05-21 06:10:00,50.9,48.3,30.07,North,0,0.0,0.0,91,0.00,,,0.00,WUHU216HW,2013-05-21 13:10:00,
2013-05-21 06:15:00,51.1,48.5,30.08,North,0,0.0,0.0,91,0.00,,,0.00,WUHU216HW,2013-05-21 13:15:00,
2013-05-21 06:20:00,51.1,48.5,30.08,North,0,0.0,0.0,91,0.00,,,0.00,WUHU216HW,2013-05-21 13:20:00,
2013-05-21 06:25:00,51.1,48.5,30.08,North,0,0.0,0.0,91,0.00,,,0.00,WUHU216HW,2013-05-21 13:25:00,
2013-05-21 06:30:00,51.3,48.7,30.07,North,0,0.0,0.0,91,0.00,,,0.00,WUHU216HW,2013-05-21 13:30:00,
2013-05-21 06:35:00,51.5,48.9,30.08,North,0,0.0,0.0,91,0.00,,,0.00,WUHU216HW,2013-05-21 13:35:00,
2013-05-21 06:40:00,51.5,48.9,30.08,North,0,0.0,0.0,91,0.00,,,0.00,WUHU216HW,2013-05-21 13:40:00,
2013-05-21 06:45:00,51.5,48.9,30.08,North,0,0.0,0.0,91,0.00,,,0.00,WUHU216HW,2013-05-21 13:45:00,
2013-05-21 06:50:00,51.5,48.9,30.08,North,0,0.0,0.0,91,0.00,,,0.00,WUHU216HW,2013-05-21 13:50:00,
2013-05-21 06:55:00,51.5,48.9,30.09,North,0,0.0,0.0,91,0.00,,,0.00,WUHU216HW,2013-05-21 13:55:00,
2013-05-21 07:00:00,51.5,48.6,30.09,North,0,0.0,0.0,90,0.00,,,0.00,WUHU216HW,2013-05-21 14:00:00,
2013-05-21 07:05:00,51.5,48.6,30.09,North,0,0.0,0.0,90,0.00,,,0.00,WUHU216HW,2013-05-21 14:05:00,
2013-05-21 07:11:00,51.8,49.2,30.09,North,0,0.0,0.0,91,0.00,,,0.00,WUHU216HW,2013-05-21 14:11:00,
2013-05-21 07:16:00,52.2,49.6,30.09,North,0,0.0,0.0,91,0.00,,,0.00,WUHU216HW,2013-05-21 14:16:00,
2013-05-21 07:21:00,52.4,49.5,30.09,North,0,0.0,0.0,90,0.00,,,0.00,WUHU216HW,2013-05-21 14:21:00,
2013-05-21 07:26:00,52.6,49.4,30.10,North,0,0.0,0.0,89,0.00,,,0.00,WUHU216HW,2013-05-21 14:26:00,
2013-05-21 07:31:00,52.7,49.6,30.09,North,0,0.0,0.0,89,0.00,,,0.00,WUHU216HW,2013-05-21 14:31:00,
2013-05-21 07:36:00,52.9,49.8,30.10,North,0,0.0,0.0,89,0.00,,,0.00,WUHU216HW,2013-05-21 14:36:00,
2013-05-21 07:41:00,53.6,50.1,30.10,North,0,0.0,0.0,88,0.00,,,0.00,WUHU216HW,2013-05-21 14:41:00,
2013-05-21 07:46:00,54.7,51.2,30.10,North,0,0.0,0.0,88,0.00,,,0.00,WUHU216HW,2013-05-21 14:46:00,
2013-05-21 07:51:00,56.5,52.4,30.10,North,0,0.0,0.0,86,0.00,,,0.00,WUHU216HW,2013-05-21 14:51:00,
2013-05-21 07:56:00,58.1,53.3,30.10,North,0,0.0,0.0,84,0.00,,,0.00,WUHU216HW,2013-05-21 14:56:00,
2013-05-21 08:01:00,58.7,53.2,30.10,North,0,0.0,0.0,82,0.00,,,0.00,WUHU216HW,2013-05-21 15:01:00,
2013-05-21 08:06:00,59.0,52.2,30.10,North,0,0.0,0.0,78,0.00,,,0.00,WUHU216HW,2013-05-21 15:06:00,
2013-05-21 08:11:00,59.2,52.7,30.10,North,0,0.0,0.0,79,0.00,,,0.00,WUHU216HW,2013-05-21 15:11:00,
2013-05-21 08:16:00,59.8,53.3,30.10,North,0,0.0,0.0,79,0.00,,,0.00,WUHU216HW,2013-05-21 15:16:00,
2013-05-21 08:21:00,59.4,52.2,30.11,North,0,0.0,0.0,77,0.00,,,0.00,WUHU216HW,2013-05-21 15:21:00,
2013-05-21 08:26:00,59.2,52.0,30.11,North,0,0.0,0.0,77,0.00,,,0.00,WUHU216HW,2013-05-21 15:26:00,
2013-05-21 08:31:00,59.8,52.6,30.11,North,0,0.0,0.0,77,0.00,,,0.00,WUHU216HW,2013-05-21 15:31:00,
2013-05-21 08:36:00,60.1,51.8,30.11,North,0,0.0,0.0,74,0.00,,,0.00,WUHU216HW,2013-05-21 15:36:00,
2013-05-21 08:41:00,59.9,51.7,30.11,North,0,0.0,0.0,74,0.00,,,0.00,WUHU216HW,2013-05-21 15:41:00,
2013-05-21 08:46:00,59.9,52.4,30.11,North,0,0.0,0.0,76,0.00,,,0.00,WUHU216HW,2013-05-21 15:46:00,
2013-05-21 08:51:00,59.9,52.4,30.11,North,0,0.0,0.0,76,0.00,,,0.00,WUHU216HW,2013-05-21 15:51:00,
2013-05-21 08:56:00,59.9,52.0,30.11,North,0,0.0,0.0,75,0.00,,,0.00,WUHU216HW,2013-05-21 15:56:00,
2013-05-21 09:01:00,59.6,51.7,30.12,North,0,0.0,0.0,75,0.00,,,0.00,WUHU216HW,2013-05-21 16:01:00,
2013-05-21 09:06:00,59.4,51.8,30.11,North,0,0.0,0.0,76,0.00,,,0.00,WUHU216HW,2013-05-21 16:06:00,
2013-05-21 09:11:00,59.6,52.0,30.12,North,0,0.0,0.0,76,0.00,,,0.00,WUHU216HW,2013-05-21 16:11:00,
2013-05-21 09:16:00,60.8,53.3,30.11,North,0,0.0,0.0,76,0.00,,,0.00,WUHU216HW,2013-05-21 16:16:00,
2013-05-21 09:21:00,61.7,53.0,30.11,North,0,0.0,0.0,73,0.00,,,0.00,WUHU216HW,2013-05-21 16:21:00,
2013-05-21 09:26:00,62.6,53.5,30.11,North,0,0.0,0.0,72,0.00,,,0.00,WUHU216HW,2013-05-21 16:26:00,
2013-05-21 09:31:00,63.0,54.2,30.11,North,0,0.0,0.0,73,0.00,,,0.00,WUHU216HW,2013-05-21 16:31:00,
2013-05-21 09:36:00,63.7,54.5,30.11,North,0,0.0,0.0,72,0.00,,,0.00,WUHU216HW,2013-05-21 16:36:00,
2013-05-21 09:41:00,65.2,54.4,30.11,North,0,0.0,0.0,68,0.00,,,0.00,WUHU216HW,2013-05-21 16:41:00,
2013-05-21 09:46:00,64.8,54.5,30.12,North,0,0.0,0.0,69,0.00,,,0.00,WUHU216HW,2013-05-21 16:46:00,
2013-05-21 09:51:00,65.5,54.6,30.11,North,0,0.0,0.0,68,0.00,,,0.00,WUHU216HW,2013-05-21 16:51:00,
2013-05-21 09:56:00,67.0,56.1,30.11,North,0,0.0,0.0,68,0.00,,,0.00,WUHU216HW,2013-05-21 16:56:00,
2013-05-21 10:01:00,67.1,55.4,30.11,North,0,0.0,0.0,66,0.00,,,0.00,WUHU216HW,2013-05-21 17:01:00,
2013-05-21 10:06:00,67.1,55.4,30.11,North,0,0.0,0.0,66,0.00,,,0.00,WUHU216HW,2013-05-21 17:06:00,
2013-05-21 10:11:00,67.0,53.9,30.11,North,0,0.0,0.0,63,0.00,,,0.00,WUHU216HW,2013-05-21 17:11:00,
2013-05-21 10:16:00,66.1,53.5,30.11,North,0,0.0,0.0,64,0.00,,,0.00,WUHU216HW,2013-05-21 17:16:00,
2013-05-21 10:21:00,65.5,53.4,30.10,North,0,0.0,0.0,65,0.00,,,0.00,WUHU216HW,2013-05-21 17:21:00,
2013-05-21 10:26:00,65.2,53.5,30.10,North,0,0.0,0.0,66,0.00,,,0.00,WUHU216HW,2013-05-21 17:26:00,
2013-05-21 10:31:00,65.5,53.4,30.11,North,0,0.0,0.0,65,0.00,,,0.00,WUHU216HW,2013-05-21 17:31:00,
2013-05-21 10:36:00,65.7,53.6,30.11,North,0,0.0,0.0,65,0.00,,,0.00,WUHU216HW,2013-05-21 17:36:00,
2013-05-21 10:41:00,66.8,54.2,30.12,North,0,0.0,0.0,64,0.00,,,0.00,WUHU216HW,2013-05-21 17:41:00,
2013-05-21 10:46:00,67.0,53.1,30.11,North,0,0.0,0.0,61,0.00,,,0.00,WUHU216HW,2013-05-21 17:46:00,
2013-05-21 10:51:00,66.6,53.7,30.12,North,0,0.0,0.0,63,0.00,,,0.00,WUHU216HW,2013-05-21 17:51:00,
2013-05-21 10:56:00,67.3,55.1,30.12,North,0,0.0,0.0,65,0.00,,,0.00,WUHU216HW,2013-05-21 17:56:00,
2013-05-21 11:01:00,67.7,54.6,30.12,North,0,0.0,0.0,63,0.00,,,0.00,WUHU216HW,2013-05-21 18:01:00,
2013-05-21 11:06:00,68.0,54.1,30.11,North,0,0.0,0.0,61,0.00,,,0.00,WUHU216HW,2013-05-21 18:06:00,
2013-05-21 11:11:00,67.7,53.3,30.11,North,0,0.0,0.0,60,0.00,,,0.00,WUHU216HW,2013-05-21 18:11:00,
2013-05-21 11:16:00,66.6,52.4,30.11,North,0,0.0,0.0,60,0.00,,,0.00,WUHU216HW,2013-05-21 18:16:00,
2013-05-21 11:21:00,67.0,53.9,30.11,North,0,0.0,0.0,63,0.00,,,0.00,WUHU216HW,2013-05-21 18:21:00,
2013-05-21 11:26:00,67.7,53.7,30.11,North,0,0.0,0.0,61,0.00,,,0.00,WUHU216HW,2013-05-21 18:26:00,
2013-05-21 11:31:00,67.5,54.0,30.11,North,0,0.0,0.0,62,0.00,,,0.00,WUHU216HW,2013-05-21 18:31:00,
2013-05-21 11:36:00,68.0,52.7,30.11,North,0,0.0,0.0,58,0.00,,,0.00,WUHU216HW,2013-05-21 18:36:00,
2013-05-21 11:41:00,67.3,53.0,30.12,North,0,0.0,0.0,60,0.00,,,0.00,WUHU216HW,2013-05-21 18:41:00,
2013-05-21 11:46:00,67.7,52.4,30.12,North,0,0.0,0.0,58,0.00,,,0.00,WUHU216HW,2013-05-21 18:46:00,
2013-05-21 11:51:00,67.3,50.6,30.11,North,0,0.0,0.0,55,0.00,,,0.00,WUHU216HW,2013-05-21 18:51:00,
2013-05-21 11:56:00,66.8,51.6,30.11,North,0,0.0,0.0,58,0.00,,,0.00,WUHU216HW,2013-05-21 18:56:00,
2013-05-21 12:01:00,67.3,53.0,30.11,North,0,0.0,0.0,60,0.00,,,0.00,WUHU216HW,2013-05-21 19:01:00,
2013-05-21 12:06:00,68.0,53.2,30.11,North,0,0.0,0.0,59,0.00,,,0.00,WUHU216HW,2013-05-21 19:06:00,
2013-05-21 12:11:00,68.6,53.2,30.11,North,0,0.0,0.0,58,0.00,,,0.00,WUHU216HW,2013-05-21 19:11:00,
2013-05-21 12:16:00,67.7,52.8,30.11,North,0,0.0,0.0,59,0.00,,,0.00,WUHU216HW,2013-05-21 19:16:00,
2013-05-21 12:21:00,67.9,53.0,30.11,North,0,0.0,0.0,59,0.00,,,0.00,WUHU216HW,2013-05-21 19:21:00,
2013-05-21 12:26:00,68.2,53.4,30.11,North,0,0.0,0.0,59,0.00,,,0.00,WUHU216HW,2013-05-21 19:26:00,
2013-05-21 12:31:00,68.4,52.6,30.11,North,0,0.0,0.0,57,0.00,,,0.00,WUHU216HW,2013-05-21 19:31:00,
2013-05-21 12:36:00,68.4,53.0,30.11,North,0,0.0,0.0,58,0.00,,,0.00,WUHU216HW,2013-05-21 19:36:00,
2013-05-21 12:41:00,68.0,52.2,30.11,North,0,0.0,0.0,57,0.00,,,0.00,WUHU216HW,2013-05-21 19:41:00,
2013-05-21 12:46:00,67.3,52.0,30.11,North,0,0.0,0.0,58,0.00,,,0.00,WUHU216HW,2013-05-21 19:46:00,
2013-05-21 12:51:00,67.1,52.4,30.11,North,0,0.0,0.0,59,0.00,,,0.00,WUHU216HW,2013-05-21 19:51:00,
2013-05-21 12:56:00,68.2,52.8,30.11,North,0,0.0,0.0,58,0.00,,,0.00,WUHU216HW,2013-05-21 19:56:00,
2013-05-21 13:01:00,68.2,52.4,30.11,North,0,0.0,0.0,57,0.00,,,0.00,WUHU216HW,2013-05-21 20:01:00,
2013-05-21 13:06:00,68.2,51.8,30.11,North,0,0.0,0.0,56,0.00,,,0.00,WUHU216HW,2013-05-21 20:06:00,
2013-05-21 13:11:00,68.0,52.7,30.11,North,0,0.0,0.0,58,0.00,,,0.00,WUHU216HW,2013-05-21 20:11:00,
2013-05-21 13:16:00,68.9,53.0,30.11,North,0,0.0,0.0,57,0.00,,,0.00,WUHU216HW,2013-05-21 20:16:00,
2013-05-21 13:21:00,69.1,51.8,30.10,North,0,0.0,0.0,54,0.00,,,0.00,WUHU216HW,2013-05-21 20:21:00,
2013-05-21 13:26:00,68.8,51.9,30.11,North,0,0.0,0.0,55,0.00,,,0.00,WUHU216HW,2013-05-21 20:26:00,
2013-05-21 13:31:00,69.5,52.6,30.10,North,0,0.0,0.0,55,0.00,,,0.00,WUHU216HW,2013-05-21 20:31:00,
2013-05-21 13:36:00,69.1,51.8,30.10,North,0,0.0,0.0,54,0.00,,,0.00,WUHU216HW,2013-05-21 20:36:00,
2013-05-21 13:41:00,68.8,51.4,30.10,North,0,0.0,0.0,54,0.00,,,0.00,WUHU216HW,2013-05-21 20:41:00,
2013-05-21 13:46:00,68.6,51.2,30.10,North,0,0.0,0.0,54,0.00,,,0.00,WUHU216HW,2013-05-21 20:46:00,
2013-05-21 13:51:00,68.4,51.0,30.10,North,0,0.0,0.0,54,0.00,,,0.00,WUHU216HW,2013-05-21 20:51:00,
2013-05-21 13:56:00,68.2,50.9,30.10,North,0,0.0,0.0,54,0.00,,,0.00,WUHU216HW,2013-05-21 20:56:00,
2013-05-21 14:01:00,68.4,50.6,30.10,North,0,0.0,0.0,53,0.00,,,0.00,WUHU216HW,2013-05-21 21:01:00,
2013-05-21 14:06:00,68.6,50.2,30.10,North,0,0.0,0.0,52,0.00,,,0.00,WUHU216HW,2013-05-21 21:06:00,
2013-05-21 14:11:00,68.8,50.4,30.09,North,0,0.0,0.0,52,0.00,,,0.00,WUHU216HW,2013-05-21 21:11:00,
2013-05-21 14:16:00,68.8,50.4,30.09,North,0,0.0,0.0,52,0.00,,,0.00,WUHU216HW,2013-05-21 21:16:00,
2013-05-21 14:21:00,68.4,50.6,30.09,North,0,0.0,0.0,53,0.00,,,0.00,WUHU216HW,2013-05-21 21:21:00,
2013-05-21 14:26:00,68.0,50.2,30.09,North,0,0.0,0.0,53,0.00,,,0.00,WUHU216HW,2013-05-21 21:26:00,
2013-05-21 14:31:00,68.4,50.6,30.09,North,0,0.0,0.0,53,0.00,,,0.00,WUHU216HW,2013-05-21 21:31:00,
2013-05-21 14:36:00,68.2,50.4,30.09,North,0,0.0,0.0,53,0.00,,,0.00,WUHU216HW,2013-05-21 21:36:00,
2013-05-21 14:41:00,67.9,49.6,30.08,North,0,0.0,0.0,52,0.00,,,0.00,WUHU216HW,2013-05-21 21:41:00,
2013-05-21 14:46:00,68.6,50.2,30.08,North,0,0.0,0.0,52,0.00,,,0.00,WUHU216HW,2013-05-21 21:46:00,
2013-05-21 14:51:00,68.9,50.6,30.08,North,0,0.0,0.0,52,0.00,,,0.00,WUHU216HW,2013-05-21 21:51:00,
2013-05-21 14:56:00,69.8,51.0,30.08,North,0,0.0,0.0,51,0.00,,,0.00,WUHU216HW,2013-05-21 21:56:00,
2013-05-21 15:01:00,70.2,50.1,30.08,North,0,0.0,0.0,49,0.00,,,0.00,WUHU216HW,2013-05-21 22:01:00,
2013-05-21 15:06:00,70.2,50.8,30.09,North,0,0.0,0.0,50,0.00,,,0.00,WUHU216HW,2013-05-21 22:06:00,
2013-05-21 15:11:00,69.8,51.0,30.08,North,0,0.0,0.0,51,0.00,,,0.00,WUHU216HW,2013-05-21 22:11:00,
2013-05-21 15:16:00,69.7,50.8,30.08,North,0,0.0,0.0,51,0.00,,,0.00,WUHU216HW,2013-05-21 22:16:00,
2013-05-21 15:21:00,69.5,50.6,30.08,North,0,0.0,0.0,51,0.00,,,0.00,WUHU216HW,2013-05-21 22:21:00,
2013-05-21 15:27:00,69.1,50.2,30.08,North,0,0.0,0.0,51,0.00,,,0.00,WUHU216HW,2013-05-21 22:27:00,
2013-05-21 15:32:00,69.1,50.2,30.08,North,0,0.0,0.0,51,0.00,,,0.00,WUHU216HW,2013-05-21 22:32:00,
2013-05-21 15:37:00,68.8,50.0,30.07,North,0,0.0,0.0,51,0.00,,,0.00,WUHU216HW,2013-05-21 22:37:00,
2013-05-21 15:42:00,68.8,50.0,30.07,North,0,0.0,0.0,51,0.00,,,0.00,WUHU216HW,2013-05-21 22:42:00,
2013-05-21 15:47:00,68.6,49.8,30.06,North,0,0.0,0.0,51,0.00,,,0.00,WUHU216HW,2013-05-21 22:47:00,
2013-05-21 15:52:00,68.4,49.6,30.06,North,0,0.0,0.0,51,0.00,,,0.00,WUHU216HW,2013-05-21 22:52:00,
2013-05-21 15:57:00,68.2,49.4,30.06,North,0,0.0,0.0,51,0.00,,,0.00,WUHU216HW,2013-05-21 22:57:00,
2013-05-21 16:02:00,68.0,49.2,30.05,North,0,0.0,0.0,51,0.00,,,0.00,WUHU216HW,2013-05-21 23:02:00,
2013-05-21 16:07:00,67.3,49.2,30.05,North,0,0.0,0.0,52,0.00,,,0.00,WUHU216HW,2013-05-21 23:07:00,
2013-05-21 16:12:00,67.0,48.8,30.05,North,0,0.0,0.0,52,0.00,,,0.00,WUHU216HW,2013-05-21 23:12:00,
2013-05-21 16:17:00,66.8,49.2,30.05,North,0,0.0,0.0,53,0.00,,,0.00,WUHU216HW,2013-05-21 23:17:00,
2013-05-21 16:22:00,66.6,49.0,30.05,North,0,0.0,0.0,53,0.00,,,0.00,WUHU216HW,2013-05-21 23:22:00,
2013-05-21 16:27:00,66.4,48.8,30.05,North,0,0.0,0.0,53,0.00,,,0.00,WUHU216HW,2013-05-21 23:27:00,
2013-05-21 16:32:00,66.2,48.6,30.05,North,0,0.0,0.0,53,0.00,,,0.00,WUHU216HW,2013-05-21 23:32:00,
2013-05-21 16:37:00,66.4,48.8,30.05,North,0,0.0,0.0,53,0.00,,,0.00,WUHU216HW,2013-05-21 23:37:00,
2013-05-21 16:42:00,66.6,49.0,30.05,North,0,0.0,0.0,53,0.00,,,0.00,WUHU216HW,2013-05-21 23:42:00,
2013-05-21 16:47:00,66.4,48.8,30.04,North,0,0.0,0.0,53,0.00,,,0.00,WUHU216HW,2013-05-21 23:47:00,
2013-05-21 16:52:00,66.1,48.4,30.05,North,0,0.0,0.0,53,0.00,,,0.00,WUHU216HW,2013-05-21 23:52:00,
2013-05-21 16:57:00,66.1,48.4,30.04,North,0,0.0,0.0,53,0.00,,,0.00,WUHU216HW,2013-05-21 23:57:00,
2013-05-21 17:02:00,66.1,48.0,30.04,North,0,0.0,0.0,52,0.00,,,0.00,WUHU216HW,2013-05-22 00:02:00,
2013-05-21 17:07:00,65.9,48.2,30.05,North,0,0.0,0.0,53,0.00,,,0.00,WUHU216HW,2013-05-22 00:07:00,
2013-05-21 17:12:00,65.9,47.8,30.05,North,0,0.0,0.0,52,0.00,,,0.00,WUHU216HW,2013-05-22 00:12:00,
2013-05-21 17:17:00,65.3,47.7,30.04,North,0,0.0,0.0,53,0.00,,,0.00,WUHU216HW,2013-05-22 00:17:00,
2013-05-21 17:22:00,64.8,47.2,30.04,North,0,0.0,0.0,53,0.00,,,0.00,WUHU216HW,2013-05-22 00:22:00,
2013-05-21 17:27:00,64.6,47.0,30.04,North,0,0.0,0.0,53,0.00,,,0.00,WUHU216HW,2013-05-22 00:27:00,
2013-05-21 17:32:00,64.4,47.4,30.04,North,0,0.0,0.0,54,0.00,,,0.00,WUHU216HW,2013-05-22 00:32:00,
2013-05-21 17:37:00,64.4,47.4,30.04,North,0,0.0,0.0,54,0.00,,,0.00,WUHU216HW,2013-05-22 00:37:00,
2013-05-21 17:42:00,64.1,47.0,30.04,North,0,0.0,0.0,54,0.00,,,0.00,WUHU216HW,2013-05-22 00:42:00,
2013-05-21 17:47:00,64.1,47.4,30.03,North,0,0.0,0.0,55,0.00,,,0.00,WUHU216HW,2013-05-22 00:47:00,
2013-05-21 17:52:00,63.7,47.6,30.03,North,0,0.0,0.0,56,0.00,,,0.00,WUHU216HW,2013-05-22 00:52:00,
2013-05-21 17:57:00,63.7,47.6,30.03,North,0,0.0,0.0,56,0.00,,,0.00,WUHU216HW,2013-05-22 00:57:00,
2013-05-21 18:02:00,63.7,47.6,30.03,North,0,0.0,0.0,56,0.00,,,0.00,WUHU216HW,2013-05-22 01:02:00,
2013-05-21 18:07:00,63.7,47.6,30.03,North,0,0.0,0.0,56,0.00,,,0.00,WUHU216HW,2013-05-22 01:07:00,
2013-05-21 18:12:00,63.7,47.6,30.04,North,0,0.0,0.0,56,0.00,,,0.00,WUHU216HW,2013-05-22 01:12:00,
2013-05-21 18:17:00,63.5,46.5,30.04,North,0,0.0,0.0,54,0.00,,,0.00,WUHU216HW,2013-05-22 01:17:00,
2013-05-21 18:22:00,63.5,45.6,30.04,North,0,0.0,0.0,52,0.00,,,0.00,WUHU216HW,2013-05-22 01:22:00,
2013-05-21 18:27:00,63.2,45.2,30.04,North,0,0.0,0.0,52,0.00,,,0.00,WUHU216HW,2013-05-22 01:27:00,
2013-05-21 18:32:00,63.0,44.6,30.04,North,0,0.0,0.0,51,0.00,,,0.00,WUHU216HW,2013-05-22 01:32:00,
2013-05-21 18:37:00,62.6,44.2,30.04,North,0,0.0,0.0,51,0.00,,,0.00,WUHU216HW,2013-05-22 01:37:00,
2013-05-21 18:42:00,62.3,44.4,30.04,North,0,0.0,0.0,52,0.00,,,0.00,WUHU216HW,2013-05-22 01:42:00,
2013-05-21 18:47:00,61.7,43.9,30.04,North,0,0.0,0.0,52,0.00,,,0.00,WUHU216HW,2013-05-22 01:47:00,
2013-05-21 18:52:00,61.6,44.2,30.04,North,0,0.0,0.0,53,0.00,,,0.00,WUHU216HW,2013-05-22 01:52:00,
2013-05-21 18:57:00,61.2,44.4,30.04,North,0,0.0,0.0,54,0.00,,,0.00,WUHU216HW,2013-05-22 01:57:00,
2013-05-21 19:02:00,61.0,44.7,30.04,North,0,0.0,0.0,55,0.00,,,0.00,WUHU216HW,2013-05-22 02:02:00,
2013-05-21 19:07:00,60.7,44.4,30.04,North,0,0.0,0.0,55,0.00,,,0.00,WUHU216HW,2013-05-22 02:07:00,
2013-05-21 19:12:00,60.3,44.6,30.04,North,0,0.0,0.0,56,0.00,,,0.00,WUHU216HW,2013-05-22 02:12:00,
2013-05-21 19:17:00,59.9,44.6,30.04,North,0,0.0,0.0,57,0.00,,,0.00,WUHU216HW,2013-05-22 02:17:00,
2013-05-21 19:22:00,59.8,44.5,30.04,North,0,0.0,0.0,57,0.00,,,0.00,WUHU216HW,2013-05-22 02:22:00,
2013-05-21 19:27:00,59.4,44.7,30.04,North,0,0.0,0.0,58,0.00,,,0.00,WUHU216HW,2013-05-22 02:27:00,
2013-05-21 19:32:00,59.2,44.5,30.04,North,0,0.0,0.0,58,0.00,,,0.00,WUHU216HW,2013-05-22 02:32:00,
2013-05-21 19:37:00,59.0,44.7,30.04,North,0,0.0,0.0,59,0.00,,,0.00,WUHU216HW,2013-05-22 02:37:00,
2013-05-21 19:42:00,58.9,44.6,30.04,North,0,0.0,0.0,59,0.00,,,0.00,WUHU216HW,2013-05-22 02:42:00,
2013-05-21 19:47:00,58.7,44.4,30.04,North,0,0.0,0.0,59,0.00,,,0.00,WUHU216HW,2013-05-22 02:47:00,
2013-05-21 19:52:00,58.3,44.1,30.04,North,0,0.0,0.0,59,0.00,,,0.00,WUHU216HW,2013-05-22 02:52:00,
2013-05-21 19:57:00,58.1,43.9,30.05,North,0,0.0,0.0,59,0.00,,,0.00,WUHU216HW,2013-05-22 02:57:00,
2013-05-21 20:02:00,58.0,43.7,30.05,North,0,0.0,0.0,59,0.00,,,0.00,WUHU216HW,2013-05-22 03:02:00,
2013-05-21 20:07:00,57.6,43.9,30.05,North,0,0.0,0.0,60,0.00,,,0.00,WUHU216HW,2013-05-22 03:07:00,
2013-05-21 20:12:00,57.2,43.6,30.05,North,0,0.0,0.0,60,0.00,,,0.00,WUHU216HW,2013-05-22 03:12:00,
2013-05-21 20:17:00,57.1,43.7,30.06,North,0,0.0,0.0,61,0.00,,,0.00,WUHU216HW,2013-05-22 03:17:00,
2013-05-21 20:22:00,56.9,43.6,30.06,North,0,0.0,0.0,61,0.00,,,0.00,WUHU216HW,2013-05-22 03:22:00,
2013-05-21 20:27:00,56.5,43.2,30.06,North,0,0.0,0.0,61,0.00,,,0.00,WUHU216HW,2013-05-22 03:27:00,
2013-05-21 20:32:00,56.2,43.3,30.07,North,0,0.0,0.0,62,0.00,,,0.00,WUHU216HW,2013-05-22 03:32:00,
2013-05-21 20:37:00,55.8,42.9,30.07,North,0,0.0,0.0,62,0.00,,,0.00,WUHU216HW,2013-05-22 03:37:00,
2013-05-21 20:42:00,55.3,42.9,30.07,North,0,0.0,0.0,63,0.00,,,0.00,WUHU216HW,2013-05-22 03:42:00,
2013-05-21 20:47:00,54.9,42.9,30.07,North,0,0.0,0.0,64,0.00,,,0.00,WUHU216HW,2013-05-22 03:47:00,
2013-05-21 20:52:00,54.7,42.8,30.07,North,0,0.0,0.0,64,0.00,,,0.00,WUHU216HW,2013-05-22 03:52:00,
2013-05-21 20:57:00,54.4,42.4,30.07,North,0,0.0,0.0,64,0.00,,,0.00,WUHU216HW,2013-05-22 03:57:00,
2013-05-21 21:02:00,54.0,42.5,30.07,North,0,0.0,0.0,65,0.00,,,0.00,WUHU216HW,2013-05-22 04:02:00,
2013-05-21 21:07:00,53.8,42.3,30.07,North,0,0.0,0.0,65,0.00,,,0.00,WUHU216HW,2013-05-22 04:07:00,
2013-05-21 21:12:00,53.6,42.1,30.08,North,0,0.0,0.0,65,0.00,,,0.00,WUHU216HW,2013-05-22 04:12:00,
2013-05-21 21:17:00,53.5,41.9,30.08,North,0,0.0,0.0,65,0.00,,,0.00,WUHU216HW,2013-05-22 04:17:00,
2013-05-21 21:22:00,52.9,41.4,30.07,North,0,0.0,0.0,65,0.00,,,0.00,WUHU216HW,2013-05-22 04:22:00,
2013-05-21 21:27:00,52.7,41.3,30.07,North,0,0.0,0.0,65,0.00,,,0.00,WUHU216HW,2013-05-22 04:27:00,
2013-05-21 21:32:00,52.6,41.5,30.08,North,0,0.0,0.0,66,0.00,,,0.00,WUHU216HW,2013-05-22 04:32:00,
2013-05-21 21:37:00,52.2,41.6,30.08,North,0,0.0,0.0,67,0.00,,,0.00,WUHU216HW,2013-05-22 04:37:00,
2013-05-21 21:42:00,52.0,41.0,30.08,North,0,0.0,0.0,66,0.00,,,0.00,WUHU216HW,2013-05-22 04:42:00,
2013-05-21 21:47:00,51.8,41.2,30.08,North,0,0.0,0.0,67,0.00,,,0.00,WUHU216HW,2013-05-22 04:47:00,
2013-05-21 21:52:00,51.5,40.9,30.08,North,0,0.0,0.0,67,0.00,,,0.00,WUHU216HW,2013-05-22 04:52:00,
2013-05-21 21:57:00,51.3,40.7,30.08,North,0,0.0,0.0,67,0.00,,,0.00,WUHU216HW,2013-05-22 04:57:00,
2013-05-21 22:02:00,51.1,40.5,30.08,North,0,0.0,0.0,67,0.00,,,0.00,WUHU216HW,2013-05-22 05:02:00,
2013-05-21 22:07:00,50.9,40.3,30.08,North,0,0.0,0.0,67,0.00,,,0.00,WUHU216HW,2013-05-22 05:07:00,
2013-05-21 22:12:00,50.8,40.6,30.09,North,0,0.0,0.0,68,0.00,,,0.00,WUHU216HW,2013-05-22 05:12:00,
2013-05-21 22:17:00,50.6,40.4,30.09,North,0,0.0,0.0,68,0.00,,,0.00,WUHU216HW,2013-05-22 05:17:00,
2013-05-21 22:22:00,50.4,40.2,30.09,North,0,0.0,0.0,68,0.00,,,0.00,WUHU216HW,2013-05-22 05:22:00,
2013-05-21 22:27:00,50.2,40.1,30.09,North,0,0.0,0.0,68,0.00,,,0.00,WUHU216HW,2013-05-22 05:27:00,
2013-05-21 22:32:00,50.0,40.3,30.09,North,0,0.0,0.0,69,0.00,,,0.00,WUHU216HW,2013-05-22 05:32:00,
2013-05-21 22:37:00,50.0,40.3,30.09,North,0,0.0,0.0,69,0.00,,,0.00,WUHU216HW,2013-05-22 05:37:00,
2013-05-21 22:42:00,50.0,40.7,30.09,North,0,0.0,0.0,70,0.00,,,0.00,WUHU216HW,2013-05-22 05:42:00,
2013-05-21 22:47:00,50.0,40.7,30.09,North,0,0.0,0.0,70,0.00,,,0.00,WUHU216HW,2013-05-22 05:47:00,
2013-05-21 22:52:00,50.0,41.1,30.09,North,0,0.0,0.0,71,0.00,,,0.00,WUHU216HW,2013-05-22 05:52:00,
2013-05-21 22:57:00,49.7,40.7,30.09,North,0,0.0,0.0,71,0.00,,,0.00,WUHU216HW,2013-05-22 05:57:00,
2013-05-21 23:02:00,49.5,40.1,30.09,North,0,0.0,0.0,70,0.00,,,0.00,WUHU216HW,2013-05-22 06:02:00,
2013-05-21 23:07:00,49.3,40.3,30.09,North,0,0.0,0.0,71,0.00,,,0.00,WUHU216HW,2013-05-22 06:07:00,
2013-05-21 23:12:00,49.3,40.7,30.09,North,0,0.0,0.0,72,0.00,,,0.00,WUHU216HW,2013-05-22 06:12:00,
2013-05-21 23:17:00,49.3,40.7,30.09,North,0,0.0,0.0,72,0.00,,,0.00,WUHU216HW,2013-05-22 06:17:00,
2013-05-21 23:22:00,49.3,40.7,30.09,North,0,0.0,0.0,72,0.00,,,0.00,WUHU216HW,2013-05-22 06:22:00,
2013-05-21 23:27:00,49.3,40.7,30.09,North,0,0.0,0.0,72,0.00,,,0.00,WUHU216HW,2013-05-22 06:27:00,
2013-05-21 23:32:00,49.1,40.5,30.09,North,0,0.0,0.0,72,0.00,,,0.00,WUHU216HW,2013-05-22 06:32:00,
2013-05-21 23:37:00,49.0,41.3,30.09,North,0,0.0,0.0,75,0.00,,,0.00,WUHU216HW,2013-05-22 06:37:00,
2013-05-21 23:42:00,49.0,41.3,30.09,North,0,0.0,0.0,75,0.00,,,0.00,WUHU216HW,2013-05-22 06:42:00,
2013-05-21 23:47:00,48.8,41.1,30.09,North,0,0.0,0.0,75,0.00,,,0.00,WUHU216HW,2013-05-22 06:47:00,
2013-05-21 23:52:00,48.6,41.3,30.08,North,0,0.0,0.0,76,0.00,,,0.00,WUHU216HW,2013-05-22 06:52:00,
2013-05-21 23:57:00,48.6,41.3,30.08,North,0,0.0,0.0,76,0.00,,,0.00,WUHU216HW,2013-05-22 06:57:00,